• In Deutschland
  • Länderverzeichnis
  • Für 7 Tage
  • Wassertemperatur
  • Satellitenkarten
  • Wetterkarte
  • Widgets
  • user-avatar
    Anmelden

    Stündliche Wetter Olching

    Heute, 19 Oktober, Donnerstag

    Zeit Temperatur Niederschläge Wind Luftdruck Luftfeuchtigkeit
    00:00 +11°C° 0 mm 1 m/S 717 mmHg 85%
    01:00 +11°C° 0 mm 1 m/S 717 mmHg 86%
    02:00 +10°C° 0 mm 1 m/S 716 mmHg 85%
    03:00 +10°C° 0 mm 1 m/S 716 mmHg 83%
    04:00 +10°C° 0 mm 1 m/S 716 mmHg 82%
    05:00 +10°C° 0 mm 1 m/S 716 mmHg 81%
    06:00 +10°C° 0 mm 1 m/S 716 mmHg 79%
    07:00 +9°C° 0 mm 1 m/S 716 mmHg 77%
    08:00 +12°C° 0 mm 1 m/S 717 mmHg 71%
    09:00 +14°C° 0 mm 1 m/S 717 mmHg 65%
    10:00 +16°C° 0 mm 1 m/S 717 mmHg 58%
    11:00 +19°C° 0 mm 1 m/S 717 mmHg 56%
    12:00 +20°C° 0 mm 1 m/S 717 mmHg 54%
    13:00 +21°C° 0 mm 1 m/S 717 mmHg 52%
    14:00 +20°C° 0 mm 1 m/S 716 mmHg 57%
    15:00 +20°C° 0 mm 1 m/S 716 mmHg 62%
    16:00 +19°C° 0 mm 1 m/S 716 mmHg 68%
    17:00 +16°C° 0 mm 1 m/S 716 mmHg 74%
    18:00 +14°C° 0 mm 1 m/S 716 mmHg 79%
    19:00 +12°C° 0 mm 1 m/S 716 mmHg 85%
    20:00 +12°C° 0 mm 1 m/S 716 mmHg 85%
    21:00 +11°C° 0 mm 1 m/S 716 mmHg 85%
    22:00 +11°C° 0 mm 1 m/S 716 mmHg 84%
    23:00 +11°C° 0 mm 1 m/S 716 mmHg 82%

    Morgen, 20 Oktober, Freitag

    Zeit Temperatur Niederschläge Wind Luftdruck Luftfeuchtigkeit
    00:00 +10°C° 0 mm 1 m/S 716 mmHg 80%
    01:00 +10°C° 0 mm 1 m/S 716 mmHg 78%
    02:00 +10°C° 0 mm 1 m/S 716 mmHg 78%
    03:00 +9°C° 0 mm 1 m/S 716 mmHg 77%
    04:00 +9°C° 0 mm 1 m/S 716 mmHg 76%
    05:00 +8°C° 0 mm 2 m/S 717 mmHg 76%
    06:00 +8°C° 0 mm 2 m/S 717 mmHg 77%
    07:00 +8°C° 0 mm 2 m/S 718 mmHg 77%
    08:00 +10°C° 0 mm 2 m/S 718 mmHg 73%
    09:00 +14°C° 0 mm 2 m/S 718 mmHg 68%
    10:00 +16°C° 0 mm 3 m/S 718 mmHg 64%
    11:00 +17°C° 0 mm 2 m/S 719 mmHg 61%
    12:00 +18°C° 0 mm 2 m/S 719 mmHg 58%
    13:00 +20°C° 0 mm 2 m/S 719 mmHg 55%
    14:00 +19°C° 0 mm 2 m/S 719 mmHg 59%
    15:00 +20°C° 0 mm 1 m/S 719 mmHg 63%
    16:00 +19°C° 0 mm 1 m/S 719 mmHg 67%
    17:00 +18°C° 0 mm 1 m/S 719 mmHg 72%
    18:00 +15°C° 0 mm 1 m/S 719 mmHg 76%
    19:00 +13°C° 0 mm 1 m/S 719 mmHg 81%
    20:00 +13°C° 0 mm 2 m/S 719 mmHg 81%
    21:00 +12°C° 0 mm 2 m/S 719 mmHg 82%
    22:00 +12°C° 0 mm 2 m/S 720 mmHg 83%
    23:00 +12°C° 0 mm 2 m/S 719 mmHg 83%

    übermorgen, 21 Oktober, Samstag

    Zeit Temperatur Niederschläge Wind Luftdruck Luftfeuchtigkeit
    00:00 +12°C° 0 mm 2 m/S 719 mmHg 82%
    01:00 +10°C° 0 mm 2 m/S 719 mmHg 81%
    02:00 +12°C° 0 mm 2 m/S 719 mmHg 79%
    03:00 +12°C° 0 mm 2 m/S 719 mmHg 77%
    04:00 +12°C° 0 mm 1 m/S 718 mmHg 75%
    05:00 +12°C° 0 mm 2 m/S 719 mmHg 73%
    06:00 +12°C° 0 mm 2 m/S 719 mmHg 70%
    07:00 +13°C° 0 mm 2 m/S 719 mmHg 68%
    08:00 +14°C° 0 mm 2 m/S 719 mmHg 65%
    09:00 +16°C° 0 mm 2 m/S 719 mmHg 62%
    10:00 +18°C° 0 mm 2 m/S 719 mmHg 59%
    11:00 +19°C° 0 mm 3 m/S 719 mmHg 57%
    12:00 +20°C° 0 mm 3 m/S 719 mmHg 54%
    13:00 +21°C° 0 mm 3 m/S 719 mmHg 52%
    14:00 +20°C° 0 mm 3 m/S 718 mmHg 57%
    15:00 +19°C° 0 mm 2 m/S 718 mmHg 62%
    16:00 +19°C° 0 mm 2 m/S 718 mmHg 67%
    17:00 +18°C° 0 mm 1 m/S 718 mmHg 71%
    18:00 +16°C° 0 mm 1 m/S 718 mmHg 74%
    19:00 +14°C° 0 mm 1 m/S 718 mmHg 78%
    20:00 +14°C° 0 mm 2 m/S 718 mmHg 80%
    21:00 +14°C° 0 mm 2 m/S 718 mmHg 82%
    22:00 +12°C° 0 mm 3 m/S 719 mmHg 85%
    23:00 +12°C° 0,4 mm 3 m/S 719 mmHg 87%

    22 Oktober, Sonntag

    Zeit Temperatur Niederschläge Wind Luftdruck Luftfeuchtigkeit
    00:00 +11°C° 0,4 mm 3 m/S 719 mmHg 89%
    01:00 +11°C° 0,4 mm 4 m/S 719 mmHg 91%
    02:00 +10°C° 0,7 mm 3 m/S 719 mmHg 92%
    03:00 +10°C° 0,7 mm 3 m/S 719 mmHg 93%
    04:00 +9°C° 0,7 mm 3 m/S 719 mmHg 93%
    05:00 +9°C° 0,9 mm 3 m/S 719 mmHg 94%
    06:00 +9°C° 0,9 mm 3 m/S 719 mmHg 94%
    07:00 +8°C° 0,9 mm 3 m/S 718 mmHg 94%
    08:00 +8°C° 1 mm 3 m/S 719 mmHg 93%
    09:00 +8°C° 1 mm 3 m/S 719 mmHg 92%
    10:00 +9°C° 1 mm 3 m/S 719 mmHg 90%
    11:00 +9°C° 0,4 mm 3 m/S 719 mmHg 88%
    12:00 +8°C° 0,4 mm 4 m/S 719 mmHg 86%
    13:00 +8°C° 0,4 mm 4 m/S 719 mmHg 84%
    14:00 +9°C° 0,2 mm 3 m/S 719 mmHg 85%
    15:00 +8°C° 0,2 mm 3 m/S 719 mmHg 85%
    16:00 +8°C° 0,2 mm 3 m/S 719 mmHg 85%
    17:00 +8°C° 0,1 mm 3 m/S 719 mmHg 87%
    18:00 +7°C° 0,1 mm 3 m/S 719 mmHg 88%
    19:00 +7°C° 0,1 mm 3 m/S 720 mmHg 89%
    20:00 +5°C° 0,1 mm 3 m/S 720 mmHg 90%
    21:00 +5°C° 0,1 mm 3 m/S 720 mmHg 90%
    22:00 +5°C° 0,1 mm 3 m/S 720 mmHg 91%
    23:00 +5°C° 0,1 mm 3 m/S 720 mmHg 91%

    23 Oktober, Montag

    Zeit Temperatur Niederschläge Wind Luftdruck Luftfeuchtigkeit
    00:00 +5°C° 0,1 mm 3 m/S 720 mmHg 92%
    01:00 +5°C° 0,1 mm 3 m/S 720 mmHg 92%
    02:00 +5°C° 0,2 mm 3 m/S 720 mmHg 92%
    03:00 +5°C° 0,2 mm 3 m/S 721 mmHg 92%
    04:00 +5°C° 0,2 mm 3 m/S 721 mmHg 93%
    05:00 +5°C° 0,2 mm 3 m/S 721 mmHg 92%
    06:00 +5°C° 0,2 mm 3 m/S 721 mmHg 92%
    07:00 +5°C° 0,2 mm 3 m/S 722 mmHg 92%
    08:00 +5°C° 0,1 mm 3 m/S 722 mmHg 90%
    09:00 +6°C° 0,1 mm 4 m/S 722 mmHg 88%
    10:00 +6°C° 0,1 mm 4 m/S 722 mmHg 86%
    11:00 +6°C° 0,2 mm 4 m/S 722 mmHg 86%
    12:00 +7°C° 0,2 mm 4 m/S 722 mmHg 87%
    13:00 +8°C° 0,2 mm 3 m/S 723 mmHg 88%
    14:00 +8°C° 0,2 mm 3 m/S 723 mmHg 88%
    15:00 +8°C° 0,2 mm 3 m/S 723 mmHg 87%
    16:00 +8°C° 0,2 mm 3 m/S 723 mmHg 87%
    17:00 +8°C° 0,2 mm 2 m/S 724 mmHg 89%
    18:00 +7°C° 0,2 mm 2 m/S 724 mmHg 91%
    19:00 +8°C° 0,2 mm 1 m/S 725 mmHg 93%
    20:00 +6°C° 0,1 mm 2 m/S 725 mmHg 93%
    21:00 +6°C° 0,1 mm 2 m/S 725 mmHg 94%
    22:00 +5°C° 0,1 mm 2 m/S 725 mmHg 95%
    23:00 +5°C° 0 mm 2 m/S 725 mmHg 95%

    24 Oktober, Dienstag

    Zeit Temperatur Niederschläge Wind Luftdruck Luftfeuchtigkeit
    00:00 +4°C° 0 mm 2 m/S 725 mmHg 95%
    01:00 +5°C° 0 mm 1 m/S 725 mmHg 95%
    02:00 +5°C° 0 mm 1 m/S 725 mmHg 95%
    03:00 +5°C° 0 mm 1 m/S 726 mmHg 95%
    04:00 +4°C° 0 mm 1 m/S 726 mmHg 94%
    05:00 +4°C° 0 mm 1 m/S 726 mmHg 94%
    06:00 +3°C° 0 mm 2 m/S 726 mmHg 94%
    07:00 +3°C° 0 mm 2 m/S 726 mmHg 93%
    08:00 +6°C° 0 mm 1 m/S 726 mmHg 89%
    09:00 +7°C° 0 mm 1 m/S 726 mmHg 85%
    10:00 +9°C° 0 mm 1 m/S 726 mmHg 82%
    11:00 +10°C° 0 mm 1 m/S 726 mmHg 79%
    12:00 +10°C° 0 mm 1 m/S 725 mmHg 77%
    13:00 +11°C° 0 mm 1 m/S 725 mmHg 74%
    14:00 +11°C° 0 mm 1 m/S 725 mmHg 78%
    15:00 +10°C° 0 mm 1 m/S 725 mmHg 81%
    16:00 +9°C° 0 mm 0 m/S 725 mmHg 84%
    17:00 +9°C° 0,1 mm 1 m/S 725 mmHg 86%
    18:00 +9°C° 0,1 mm 1 m/S 725 mmHg 88%
    19:00 +8°C° 0,1 mm 1 m/S 726 mmHg 89%
    20:00 +8°C° 0 mm 1 m/S 726 mmHg 89%
    21:00 +8°C° 0 mm 1 m/S 726 mmHg 89%
    22:00 +8°C° 0 mm 1 m/S 726 mmHg 89%
    23:00 +7°C° 0 mm 1 m/S 726 mmHg 90%
    Mehr zeigen